DLY606 EDXW-EDMO

Flight info

Callsign DLY606
Flight time 1h 18m
Altitude 39000
Route OLDIP1A OLDIP DCT BADOS DCT OMWEG Y348 ELSOB L619 AMLUH M852 HLZ DCT ABGUS DCT ALOSO T703 LULAR/N0458F400 T105 MIQ DCT MAH
Aircraft CL60/M-SBDE1E2E3FGHIJ1J4J5J7M3RWXYZ/LB1V1D1

Departure

Time 2026-05-06 06:56
Airport Westerland Sylt Airport (EDXW)

Arrival

Time 2026-05-06 08:14
Airport Oberpfaffenhofen Airport (EDMO)
Time Latitude Longitude Altitude Speed Heading
2026-05-06 06:30 54.91311 8.33095 55 ft 0 kts 270°
2026-05-06 06:51 54.91311 8.33094 55 ft 0 kts 270°
2026-05-06 06:51 54.91310 8.33084 55 ft 0 kts 248°
2026-05-06 06:51 54.91304 8.33075 55 ft 1 kts 205°
2026-05-06 06:52 54.91296 8.33074 55 ft 0 kts 162°
2026-05-06 06:52 54.91289 8.33087 55 ft 1 kts 108°
2026-05-06 06:52 54.91288 8.33098 55 ft 3 kts 94°
2026-05-06 06:52 54.91296 8.33147 55 ft 7 kts 57°
2026-05-06 06:53 54.91365 8.33177 55 ft 13 kts 356°
2026-05-06 06:53 54.91491 8.33175 55 ft 17 kts
2026-05-06 06:53 54.91585 8.33177 55 ft 12 kts 360°
2026-05-06 06:53 54.91680 8.33176 55 ft 13 kts 358°
2026-05-06 06:54 54.91776 8.33178 55 ft 4 kts
2026-05-06 06:54 54.91802 8.33186 55 ft 4 kts 16°
2026-05-06 06:54 54.91843 8.33212 55 ft 7 kts 20°
2026-05-06 06:54 54.91901 8.33258 55 ft 10 kts 39°
2026-05-06 06:55 54.91909 8.33312 55 ft 5 kts 109°
2026-05-06 06:55 54.91882 8.33353 55 ft 6 kts 144°
2026-05-06 06:55 54.91747 8.33521 55 ft 63 kts 144°
2026-05-06 06:55 54.91137 8.34273 69 ft 145 kts 141°
2026-05-06 06:56 54.90290 8.35360 757 ft 158 kts 138°
2026-05-06 06:56 54.89404 8.36534 1613 ft 167 kts 140°
2026-05-06 06:56 54.88448 8.37729 2427 ft 180 kts 140°
2026-05-06 06:56 54.87310 8.39143 2756 ft 222 kts 141°
2026-05-06 06:57 54.85980 8.40780 3394 ft 247 kts 142°
2026-05-06 06:57 54.84547 8.42536 4031 ft 256 kts 142°
2026-05-06 06:57 54.83091 8.44316 4659 ft 259 kts 142°
2026-05-06 06:57 54.81611 8.46137 5292 ft 261 kts 142°
2026-05-06 06:58 54.80126 8.47962 5920 ft 264 kts 143°
2026-05-06 06:58 54.78643 8.49783 6541 ft 266 kts 143°
2026-05-06 06:58 54.77114 8.51659 7174 ft 269 kts 143°
2026-05-06 06:58 54.75587 8.53532 7802 ft 272 kts 143°
2026-05-06 06:59 54.74031 8.55439 8435 ft 275 kts 143°
2026-05-06 06:59 54.72477 8.57338 9062 ft 276 kts 144°
2026-05-06 06:59 54.70897 8.59273 9668 ft 281 kts 144°
2026-05-06 06:59 54.69279 8.61253 10035 ft 290 kts 144°
2026-05-06 07:00 54.67648 8.63244 10281 ft 289 kts 144°
2026-05-06 07:00 54.66003 8.65251 10529 ft 290 kts 146°
2026-05-06 07:00 54.64363 8.67251 10775 ft 290 kts 146°
2026-05-06 07:00 54.62701 8.69275 11024 ft 291 kts 146°
2026-05-06 07:01 54.61086 8.71493 11269 ft 312 kts 137°
2026-05-06 07:01 54.59462 8.74327 11525 ft 352 kts 136°
2026-05-06 07:01 54.57686 8.77465 11986 ft 374 kts 136°
2026-05-06 07:01 54.55839 8.80719 12786 ft 384 kts 136°
2026-05-06 07:02 54.53978 8.83991 13538 ft 386 kts 136°
2026-05-06 07:02 54.52100 8.87288 14294 ft 388 kts 137°
2026-05-06 07:02 54.50205 8.90606 15050 ft 392 kts 137°
2026-05-06 07:02 54.48286 8.93961 15807 ft 396 kts 137°
2026-05-06 07:03 54.46323 8.97383 16576 ft 401 kts 137°
2026-05-06 07:03 54.44377 9.00773 17323 ft 405 kts 137°
2026-05-06 07:03 54.42387 9.04233 18082 ft 409 kts 137°
2026-05-06 07:03 54.40383 9.07712 18837 ft 413 kts 138°
2026-05-06 07:04 54.38335 9.11258 19602 ft 418 kts 138°
2026-05-06 07:04 54.36116 9.14449 20369 ft 416 kts 151°
2026-05-06 07:04 54.33653 9.16945 21108 ft 418 kts 154°
2026-05-06 07:04 54.31126 9.19458 21867 ft 420 kts 154°
2026-05-06 07:05 54.28614 9.21962 22621 ft 419 kts 154°
2026-05-06 07:05 54.26113 9.24452 23371 ft 418 kts 154°
2026-05-06 07:05 54.23597 9.26953 24131 ft 416 kts 154°
2026-05-06 07:05 54.21128 9.29405 24825 ft 415 kts 155°
2026-05-06 07:06 54.18602 9.31906 25199 ft 423 kts 155°
2026-05-06 07:06 54.16005 9.34470 25424 ft 432 kts 154°
2026-05-06 07:06 54.13399 9.37044 25738 ft 439 kts 154°
2026-05-06 07:06 54.10755 9.39653 26152 ft 441 kts 154°
2026-05-06 07:07 54.08087 9.42284 26594 ft 443 kts 154°
2026-05-06 07:07 54.05442 9.44888 27021 ft 444 kts 155°
2026-05-06 07:07 54.02736 9.47545 27485 ft 444 kts 155°
2026-05-06 07:07 53.99976 9.49617 28032 ft 433 kts 168°
2026-05-06 07:08 53.97074 9.50544 28628 ft 424 kts 175°
2026-05-06 07:08 53.94157 9.51219 29238 ft 420 kts 175°
2026-05-06 07:08 53.91296 9.51895 29839 ft 416 kts 175°
2026-05-06 07:08 53.88442 9.52568 30437 ft 412 kts 175°
2026-05-06 07:09 53.85604 9.53236 31018 ft 409 kts 175°
2026-05-06 07:09 53.82829 9.53887 31586 ft 406 kts 175°
2026-05-06 07:09 53.80057 9.54536 32157 ft 402 kts 175°
2026-05-06 07:09 53.77306 9.55189 32723 ft 399 kts 174°
2026-05-06 07:10 53.74583 9.56163 33281 ft 398 kts 168°
2026-05-06 07:10 53.71959 9.57662 33816 ft 399 kts 162°
2026-05-06 07:10 53.69485 9.59644 34312 ft 400 kts 156°
2026-05-06 07:10 53.67107 9.62149 34657 ft 406 kts 150°
2026-05-06 07:11 53.64893 9.65144 34918 ft 414 kts 144°
2026-05-06 07:11 53.62862 9.68667 35182 ft 422 kts 137°
2026-05-06 07:11 53.61072 9.72702 35449 ft 432 kts 129°
2026-05-06 07:11 53.59591 9.77138 35738 ft 439 kts 123°
2026-05-06 07:12 53.58233 9.81741 36048 ft 441 kts 122°
2026-05-06 07:12 53.56868 9.86350 36363 ft 442 kts 122°
2026-05-06 07:12 53.55505 9.90939 36676 ft 443 kts 122°
2026-05-06 07:12 53.54110 9.95623 36980 ft 444 kts 122°
2026-05-06 07:13 53.52739 10.00217 37267 ft 445 kts 122°
2026-05-06 07:13 53.51338 10.04903 37544 ft 446 kts 122°
2026-05-06 07:13 53.49951 10.09530 37798 ft 448 kts 121°
2026-05-06 07:13 53.48533 10.14248 38055 ft 449 kts 121°
2026-05-06 07:14 53.47105 10.18832 38306 ft 448 kts 124°
2026-05-06 07:14 53.45383 10.23179 38550 ft 444 kts 132°
2026-05-06 07:14 53.43352 10.27033 38776 ft 440 kts 140°
2026-05-06 07:15 53.38457 10.33173 38867 ft 442 kts 155°
2026-05-06 07:15 53.32734 10.36844 38850 ft 443 kts 168°
2026-05-06 07:16 53.26742 10.39527 38833 ft 444 kts 168°
2026-05-06 07:16 53.20794 10.42192 38833 ft 442 kts 168°
2026-05-06 07:17 53.14861 10.44839 38834 ft 441 kts 168°
2026-05-06 07:17 53.08942 10.47474 38836 ft 441 kts 168°
2026-05-06 07:18 53.03048 10.50090 38834 ft 441 kts 168°
2026-05-06 07:18 52.97109 10.52719 38835 ft 441 kts 168°
2026-05-06 07:19 52.91174 10.55337 38836 ft 441 kts 168°
2026-05-06 07:19 52.85233 10.57950 38836 ft 442 kts 168°
2026-05-06 07:20 52.79293 10.60596 38835 ft 442 kts 167°
2026-05-06 07:20 52.73358 10.63241 38828 ft 441 kts 167°
2026-05-06 07:21 52.67432 10.65874 38822 ft 441 kts 168°
2026-05-06 07:21 52.61515 10.68495 38814 ft 441 kts 168°
2026-05-06 07:22 52.55592 10.71111 38817 ft 441 kts 168°
2026-05-06 07:22 52.49684 10.73712 38816 ft 441 kts 168°
2026-05-06 07:23 52.43792 10.76300 38817 ft 441 kts 168°
2026-05-06 07:23 52.37845 10.78904 38818 ft 442 kts 168°
2026-05-06 07:24 52.31937 10.81845 38819 ft 442 kts 165°
2026-05-06 07:24 52.26107 10.84913 38821 ft 442 kts 165°
2026-05-06 07:25 52.20232 10.87991 38819 ft 442 kts 165°
2026-05-06 07:25 52.14357 10.91061 38818 ft 442 kts 165°
2026-05-06 07:26 52.08532 10.94095 38818 ft 442 kts 165°
2026-05-06 07:26 52.02656 10.97146 38818 ft 442 kts 165°
2026-05-06 07:27 51.96812 11.00172 38819 ft 442 kts 165°
2026-05-06 07:27 51.90951 11.03198 38818 ft 441 kts 165°
2026-05-06 07:28 51.85121 11.06282 38818 ft 441 kts 163°
2026-05-06 07:28 51.76478 11.11239 38818 ft 441 kts 163°
2026-05-06 07:29 51.70734 11.14520 38819 ft 440 kts 163°
2026-05-06 07:29 51.64956 11.17811 38819 ft 440 kts 163°
2026-05-06 07:30 51.59188 11.21086 38819 ft 441 kts 163°
2026-05-06 07:30 51.53370 11.24381 38820 ft 442 kts 163°
2026-05-06 07:31 51.47577 11.27653 38819 ft 442 kts 163°
2026-05-06 07:31 51.41777 11.30920 38820 ft 442 kts 163°
2026-05-06 07:32 51.36000 11.34166 38820 ft 441 kts 163°
2026-05-06 07:32 51.30206 11.37412 38819 ft 441 kts 163°
2026-05-06 07:33 51.24398 11.40657 38820 ft 441 kts 163°
2026-05-06 07:33 51.18625 11.43873 38821 ft 440 kts 163°
2026-05-06 07:34 51.12855 11.47080 38820 ft 440 kts 163°
2026-05-06 07:34 51.07060 11.50292 38821 ft 439 kts 163°
2026-05-06 07:35 51.01328 11.53461 38821 ft 438 kts 163°
2026-05-06 07:35 50.95565 11.56638 38822 ft 438 kts 164°
2026-05-06 07:36 50.89816 11.59799 38822 ft 437 kts 163°
2026-05-06 07:36 50.84051 11.62961 38822 ft 437 kts 164°
2026-05-06 07:37 50.78311 11.66101 38822 ft 436 kts 165°
2026-05-06 07:37 50.72573 11.69231 38821 ft 435 kts 165°
2026-05-06 07:38 50.66840 11.72266 38822 ft 434 kts 165°
2026-05-06 07:38 50.61122 11.75228 38822 ft 433 kts 165°
2026-05-06 07:39 50.55385 11.78193 38822 ft 433 kts 165°
2026-05-06 07:39 50.49691 11.81130 38822 ft 432 kts 165°
2026-05-06 07:40 50.44024 11.84360 38821 ft 434 kts 160°
2026-05-06 07:40 50.38572 11.88083 38823 ft 433 kts 160°
2026-05-06 07:41 50.33029 11.91847 38831 ft 433 kts 160°
2026-05-06 07:41 50.27508 11.95581 38839 ft 433 kts 160°
2026-05-06 07:42 50.22015 11.99288 38845 ft 432 kts 160°
2026-05-06 07:42 50.16468 12.03023 38844 ft 432 kts 160°
2026-05-06 07:43 50.10953 12.06725 38843 ft 431 kts 160°
2026-05-06 07:43 50.05455 12.10404 38844 ft 431 kts 161°
2026-05-06 07:44 49.99941 12.14080 38844 ft 431 kts 161°
2026-05-06 07:44 49.94421 12.17751 38844 ft 431 kts 161°
2026-05-06 07:45 49.88913 12.21403 38846 ft 431 kts 161°
2026-05-06 07:45 49.83418 12.25038 38850 ft 431 kts 161°
2026-05-06 07:46 49.77864 12.28704 38852 ft 431 kts 161°
2026-05-06 07:46 49.72394 12.32549 38854 ft 435 kts 154°
2026-05-06 07:47 49.67421 12.37995 38853 ft 440 kts 147°
2026-05-06 07:47 49.62557 12.43691 38855 ft 440 kts 147°
2026-05-06 07:48 49.57686 12.49375 38855 ft 441 kts 147°
2026-05-06 07:48 49.52796 12.55063 38852 ft 441 kts 147°
2026-05-06 07:49 49.50339 12.57914 38659 ft 443 kts 147°
2026-05-06 07:49 49.47879 12.60765 38410 ft 440 kts 147°
2026-05-06 07:49 49.45427 12.63603 38159 ft 438 kts 147°
2026-05-06 07:49 49.43000 12.66293 37916 ft 434 kts 152°
2026-05-06 07:50 49.40333 12.68464 37671 ft 428 kts 161°
2026-05-06 07:50 49.37546 12.69890 37426 ft 423 kts 170°
2026-05-06 07:50 49.34663 12.70601 37179 ft 419 kts 179°
2026-05-06 07:50 49.31771 12.70601 36868 ft 417 kts 187°
2026-05-06 07:51 49.28899 12.69896 36320 ft 414 kts 196°
2026-05-06 07:51 49.26189 12.68488 35817 ft 411 kts 204°
2026-05-06 07:51 49.23600 12.66679 35288 ft 411 kts 206°
2026-05-06 07:51 49.21035 12.64857 34776 ft 411 kts 206°
2026-05-06 07:52 49.18453 12.63011 34250 ft 411 kts 206°
2026-05-06 07:52 49.15845 12.61147 33720 ft 411 kts 206°
2026-05-06 07:52 49.13264 12.59305 33195 ft 411 kts 206°
2026-05-06 07:52 49.10680 12.57461 32670 ft 412 kts 206°
2026-05-06 07:53 49.08093 12.55617 32144 ft 413 kts 206°
2026-05-06 07:53 49.05474 12.53753 31608 ft 414 kts 206°
2026-05-06 07:53 49.02874 12.51900 31079 ft 415 kts 206°
2026-05-06 07:53 49.00250 12.50024 30541 ft 416 kts 206°
2026-05-06 07:54 48.97621 12.48147 30004 ft 417 kts 206°
2026-05-06 07:54 48.95019 12.46290 29473 ft 417 kts 206°
2026-05-06 07:54 48.92406 12.44428 28937 ft 414 kts 206°
2026-05-06 07:54 48.89805 12.42576 28408 ft 410 kts 206°
2026-05-06 07:55 48.87228 12.40744 27881 ft 407 kts 206°
2026-05-06 07:55 48.84674 12.38930 27361 ft 404 kts 206°
2026-05-06 07:55 48.82159 12.37146 26849 ft 401 kts 206°
2026-05-06 07:55 48.79634 12.35369 26334 ft 398 kts 205°
2026-05-06 07:56 48.77028 12.34057 25826 ft 397 kts 196°
2026-05-06 07:56 48.74349 12.33042 25313 ft 394 kts 195°
2026-05-06 07:56 48.71701 12.32030 24808 ft 391 kts 195°
2026-05-06 07:56 48.69090 12.31031 24312 ft 388 kts 196°
2026-05-06 07:57 48.66482 12.30037 23815 ft 386 kts 196°
2026-05-06 07:57 48.63954 12.28692 23290 ft 382 kts 207°
2026-05-06 07:57 48.61791 12.26441 22728 ft 378 kts 222°
2026-05-06 07:57 48.60139 12.23421 22193 ft 376 kts 236°
2026-05-06 07:58 48.59082 12.19822 21540 ft 378 kts 251°
2026-05-06 07:58 48.58636 12.15890 21068 ft 373 kts 259°
2026-05-06 07:58 48.58309 12.12071 20603 ft 371 kts 259°
2026-05-06 07:58 48.57967 12.08198 20130 ft 366 kts 259°
2026-05-06 07:59 48.57632 12.04409 19663 ft 361 kts 259°
2026-05-06 07:59 48.57321 12.00699 19208 ft 357 kts 261°
2026-05-06 07:59 48.57234 11.96973 18747 ft 354 kts 266°
2026-05-06 07:59 48.57222 11.93287 18290 ft 349 kts 266°
2026-05-06 08:00 48.57205 11.89637 17836 ft 344 kts 266°
2026-05-06 08:00 48.57187 11.86095 17407 ft 339 kts 266°
2026-05-06 08:00 48.57167 11.82529 16970 ft 334 kts 266°
2026-05-06 08:00 48.57147 11.79038 16544 ft 329 kts 266°
2026-05-06 08:01 48.57126 11.75607 16124 ft 324 kts 266°
2026-05-06 08:01 48.57105 11.72259 15714 ft 319 kts 267°
2026-05-06 08:01 48.57083 11.68903 15304 ft 314 kts 267°
2026-05-06 08:01 48.57060 11.65620 14903 ft 309 kts 267°
2026-05-06 08:02 48.56854 11.62476 14504 ft 301 kts 253°
2026-05-06 08:02 48.55981 11.59627 14075 ft 294 kts 234°
2026-05-06 08:02 48.54568 11.57492 13672 ft 289 kts 217°
2026-05-06 08:02 48.52868 11.55856 13256 ft 285 kts 213°
2026-05-06 08:03 48.51201 11.54312 12919 ft 280 kts 213°
2026-05-06 08:03 48.49567 11.52792 12561 ft 278 kts 213°
2026-05-06 08:03 48.47925 11.51263 12206 ft 275 kts 213°
2026-05-06 08:03 48.46296 11.49747 11853 ft 271 kts 214°
2026-05-06 08:04 48.44714 11.48276 11508 ft 267 kts 214°
2026-05-06 08:04 48.43151 11.46824 11169 ft 262 kts 214°
2026-05-06 08:04 48.41602 11.45384 10833 ft 258 kts 214°
2026-05-06 08:04 48.40098 11.43987 10507 ft 253 kts 214°
2026-05-06 08:05 48.38624 11.42619 10187 ft 249 kts 214°
2026-05-06 08:05 48.37148 11.41249 9865 ft 244 kts 214°
2026-05-06 08:05 48.35726 11.39930 9558 ft 239 kts 214°
2026-05-06 08:05 48.34328 11.38635 9255 ft 235 kts 215°
2026-05-06 08:06 48.32956 11.37363 8957 ft 230 kts 215°
2026-05-06 08:06 48.31587 11.36095 8659 ft 226 kts 215°
2026-05-06 08:06 48.30267 11.34874 8374 ft 222 kts 214°
2026-05-06 08:06 48.28984 11.33688 8096 ft 218 kts 214°
2026-05-06 08:07 48.27682 11.32484 7866 ft 210 kts 214°
2026-05-06 08:07 48.26471 11.31366 7907 ft 208 kts 215°
2026-05-06 08:07 48.25135 11.30336 7477 ft 221 kts 199°
2026-05-06 08:07 48.23663 11.30648 7266 ft 221 kts 155°
2026-05-06 08:08 48.22661 11.32486 7149 ft 239 kts 113°
2026-05-06 08:08 48.22617 11.34962 6961 ft 237 kts 77°
2026-05-06 08:08 48.22954 11.37362 6844 ft 237 kts 80°
2026-05-06 08:08 48.23110 11.39823 6503 ft 233 kts 88°
2026-05-06 08:09 48.23050 11.42201 6228 ft 227 kts 97°
2026-05-06 08:09 48.22499 11.44343 5861 ft 215 kts 134°
2026-05-06 08:09 48.21272 11.45287 5519 ft 195 kts 180°
2026-05-06 08:09 48.20072 11.44692 5205 ft 175 kts 218°
2026-05-06 08:10 48.19170 11.43509 4735 ft 169 kts 225°
2026-05-06 08:10 48.18360 11.42342 4465 ft 153 kts 225°
2026-05-06 08:10 48.17607 11.41286 4225 ft 148 kts 224°
2026-05-06 08:10 48.16847 11.40237 4012 ft 147 kts 223°
2026-05-06 08:11 48.16116 11.39235 3795 ft 137 kts 223°
2026-05-06 08:11 48.15419 11.38282 3662 ft 135 kts 223°
2026-05-06 08:11 48.14733 11.37342 3474 ft 133 kts 223°
2026-05-06 08:11 48.14048 11.36402 3306 ft 133 kts 222°
2026-05-06 08:12 48.13364 11.35464 3133 ft 133 kts 222°
2026-05-06 08:12 48.12672 11.34516 2955 ft 134 kts 223°
2026-05-06 08:12 48.11990 11.33583 2782 ft 134 kts 223°
2026-05-06 08:12 48.11294 11.32629 2601 ft 135 kts 223°
2026-05-06 08:13 48.10596 11.31671 2419 ft 137 kts 223°
2026-05-06 08:13 48.09897 11.30705 2238 ft 137 kts 224°
2026-05-06 08:13 48.09183 11.29728 2079 ft 139 kts 223°
2026-05-06 08:13 48.08478 11.28773 1937 ft 132 kts 223°
2026-05-06 08:14 48.07898 11.27983 1927 ft 76 kts 222°
2026-05-06 08:14 48.07719 11.27740 1927 ft 19 kts 221°
2026-05-06 08:14 48.07634 11.27621 1927 ft 5 kts 223°
2026-05-06 08:14 48.07626 11.27586 1927 ft 5 kts 302°
2026-05-06 08:15 48.07659 11.27538 1927 ft 4 kts 322°
2026-05-06 08:15 48.07697 11.27532 1927 ft 7 kts 32°
2026-05-06 08:15 48.07737 11.27584 1927 ft 8 kts 43°
2026-05-06 08:15 48.07791 11.27659 1927 ft 9 kts 41°
2026-05-06 08:16 48.07851 11.27726 1927 ft 11 kts 30°
2026-05-06 08:16 48.07901 11.27760 1927 ft 9 kts 19°
2026-05-06 08:16 48.07969 11.27780 1927 ft 10 kts
2026-05-06 08:16 48.08055 11.27777 1927 ft 13 kts 359°
2026-05-06 08:17 48.08117 11.27797 1927 ft 5 kts 36°
2026-05-06 08:17 48.08157 11.27851 1927 ft 9 kts 43°
2026-05-06 08:17 48.08215 11.27931 1927 ft 12 kts 42°
2026-05-06 08:17 48.08289 11.28032 1927 ft 15 kts 41°
2026-05-06 08:18 48.08379 11.28152 1927 ft 18 kts 43°
2026-05-06 08:18 48.08481 11.28291 1927 ft 21 kts 41°
2026-05-06 08:18 48.08577 11.28426 1927 ft 18 kts 42°
2026-05-06 08:18 48.08667 11.28546 1927 ft 11 kts 43°
2026-05-06 08:19 48.08682 11.28562 1927 ft 3 kts 19°
2026-05-06 08:19 48.08715 11.28546 1927 ft 7 kts 327°
2026-05-06 08:19 48.08738 11.28519 1927 ft 4 kts 305°
2026-05-06 08:19 48.08771 11.28476 1927 ft 8 kts 327°
2026-05-06 08:20 48.08826 11.28434 1927 ft 6 kts 336°
2026-05-06 08:20 48.08830 11.28432 1927 ft 0 kts 336°